This is the latest recevied weather packets stored in our database for station/object KN6ETB-1. If no packets are shown the sender has not sent any weather packets the latest 10 day(s).
| Time | Temp. | Humidity | Pressure | Rain* | Wind** | Luminosity | Snow |
|---|---|---|---|---|---|---|---|
| 1777945288 | 13.89° C | 88% | 1011.5 hPa | 1.78 mm | - | 17 W/m² | - |
| 1777944985 | 13.89° C | 87% | 1011.8 hPa | 1.78 mm | - | 18 W/m² | - |
| 1777944682 | 13.89° C | 87% | 1011.5 hPa | 0 mm | - | 21 W/m² | - |
| 1777944380 | 13.89° C | 86% | 1011.9 hPa | 0 mm | - | 26 W/m² | - |
| 1777944077 | 14.44° C | 85% | 1011.9 hPa | 0 mm | - | 28 W/m² | - |
| 1777943772 | 13.89° C | 84% | 1012 hPa | 0 mm | - | 39 W/m² | - |
| 1777943470 | 13.89° C | 83% | 1012.2 hPa | 0 mm | - | 49 W/m² | - |
| 1777943165 | 14.44° C | 82% | 1012 hPa | 0 mm | - | 35 W/m² | - |
| 1777942862 | 14.44° C | 81% | 1011.9 hPa | 1.27 mm | - | 24 W/m² | - |
| 1777942558 | 14.44° C | 79% | 1012.1 hPa | 1.27 mm | - | 22 W/m² | - |
| 1777942255 | 14.44° C | 78% | 1011.9 hPa | 0 mm | - | 29 W/m² | - |
| 1777941952 | 14.44° C | 78% | 1011.9 hPa | 0 mm | - | 44 W/m² | - |
| 1777941649 | 15° C | 77% | 1012.2 hPa | 0 mm | - | 55 W/m² | - |
| 1777941347 | 15° C | 77% | 1011.9 hPa | 0 mm | - | 57 W/m² | - |
| 1777941043 | 15° C | 77% | 1012.1 hPa | 0 mm | - | 49 W/m² | - |
| 1777940738 | 15° C | 76% | 1012 hPa | 0 mm | - | 54 W/m² | - |
| 1777940438 | 15° C | 73% | 1012 hPa | 0 mm | - | 45 W/m² | - |
| 1777940134 | 15° C | 72% | 1011.9 hPa | 0 mm | - | 35 W/m² | - |
| 1777939831 | 15.56° C | 72% | 1012 hPa | 0 mm | - | 34 W/m² | - |
| 1777939529 | 15.56° C | 70% | 1011.9 hPa | 0 mm | - | 42 W/m² | - |
| 1777939226 | 15.56° C | 72% | 1011.8 hPa | 0 mm | - | 50 W/m² | - |
| 1777938923 | 16.11° C | 71% | 1011.9 hPa | 0 mm | - | 46 W/m² | - |
| 1777938619 | 16.11° C | 71% | 1011.9 hPa | 0 mm | - | 49 W/m² | - |
| 1777938317 | 16.11° C | 71% | 1012.1 hPa | 0 mm | - | 45 W/m² | - |
| 1777938014 | 16.11° C | 70% | 1012 hPa | 0 mm | - | 48 W/m² | - |
* Rain latest hour (hover to see other rain measurements)
** Current wind speed in m/s (hover to see current wind gust speed)